Lid_Strength_Index
1 2 2 2 3 4 5 5 4 6 7 7 7 7 6 7 7 6 7 6 6 7
1 1 2 3 4 5 5 5 6 6 7 8 8 7 7 7 7 7 7 6 7 8
3 1 3 4 5 6 6 7 7 7 8 8 8 8 8 7 7 7 7 8 8 9
2 3 3 5 6 6 7 8 8 8 8 8 8 8 8 8 7 8 8 8 9 10
2 2 4 6 7 7 8 8 8 9 9 9 9 8 8 8 8 8 9 10 10 11
4 5 6 7 8 9 10 10 10 10 10 11 10 9 8 8 8 9 10 10 10 10
6 7 8 9 10 11 11 12 12 12 12 11 10 9 8 8 8 9 10 10 10 10
7 7 10 11 11 12 12 12 12 13 12 11 9 9 9 8 9 10 11 11 10 9
11 11 12 11 12 12 12 12 13 13 12 10 9 8 8 9 10 11 11 12 12 11
12 13 14 14 14 14 14 13 14 14 11 10 9 9 9 10 11 12 12 12 12 11
11 12 14 14 14 15 15 15 14 13 12 11 10 9 10 11 11 11 12 12 11 11
12 13 14 15 15 15 15 14 14 13 12 11 10 10 11 11 11 11 12 10 10 11
12 13 14 15 15 15 13 13 13 13 12 11 12 11 11 12 11 12 11 11 11 10
13 14 14 14 13 14 13 13 14 14 14 13 12 11 11 11 11 12 12 12 12 12